This is the latest recevied weather packets stored in our database for station/object W5CDN. If no packets are shown the sender has not sent any weather packets the latest 10 day(s).
| Time | Temp. | Humidity | Pressure | Rain* | Wind** | Luminosity | Snow |
|---|---|---|---|---|---|---|---|
| 1788640762 | 25.56° C | 94% | 1012.2 hPa | 0.76 mm | - | - | - |
| 1788640462 | 26.11° C | 93% | 1012.3 hPa | 0.76 mm | - | - | - |
| 1788640162 | 26.67° C | 91% | 1012.3 hPa | 0.25 mm | - | - | - |
| 1788639862 | 26.67° C | 87% | 1012.3 hPa | 0.25 mm | - | - | - |
| 1788639562 | 27.22° C | 86% | 1012.3 hPa | 0.25 mm | - | - | - |
| 1788639262 | 27.78° C | 84% | 1012.4 hPa | 0.25 mm | - | - | - |
| 1788638962 | 28.89° C | 85% | 1012.3 hPa | 0.25 mm | - | - | - |
| 1788638662 | 30° C | 84% | 1011.8 hPa | 0.25 mm | - | - | - |
| 1788638362 | 30.56° C | 81% | 1011.4 hPa | 0.25 mm | - | - | - |
| 1788638062 | 31.67° C | 74% | 1011.3 hPa | 0.25 mm | - | - | - |
| 1788637762 | 33.33° C | 64% | 1011 hPa | 0 mm | - | - | - |
| 1788637462 | 33.89° C | 55% | 1011.1 hPa | 0 mm | - | - | - |
| 1788637162 | 34.44° C | 54% | 1010.9 hPa | 0 mm | - | - | - |
| 1788636862 | 34.44° C | 55% | 1010.9 hPa | 0 mm | - | - | - |
| 1788636562 | 35° C | 55% | 1010.9 hPa | 0 mm | - | - | - |
| 1788636262 | 34.44° C | 54% | 1011 hPa | 0 mm | - | - | - |
| 1788635962 | 35° C | 51% | 1010.8 hPa | 0 mm | - | - | - |
| 1788635662 | 33.89° C | 54% | 1011.2 hPa | 0 mm | - | - | - |
| 1788635362 | 33.89° C | 55% | 1011.4 hPa | 0 mm | - | - | - |
| 1788635062 | 33.89° C | 57% | 1011.4 hPa | 0 mm | - | - | - |
| 1788634762 | 32.78° C | 57% | 1011.6 hPa | 0 mm | - | - | - |
| 1788634462 | 33.89° C | 57% | 1011.7 hPa | 0 mm | - | - | - |
| 1788634162 | 34.44° C | 56% | 1011.7 hPa | 0 mm | - | - | - |
| 1788633862 | 33.89° C | 55% | 1011.6 hPa | 0 mm | - | - | - |
| 1788633562 | 35° C | 53% | 1011.7 hPa | 0 mm | - | - | - |
* Rain latest hour (hover to see other rain measurements)
** Current wind speed in m/s (hover to see current wind gust speed)